Location: Stuttgart
(48.7824°N, 9.1964°E)
Time: 11:46:16
(UTC+01:00)

ISS - Pass Details

Date: 30 January 2019
Orbit: 403 x 411 km, 51.6° (Epoch: 21 February)

Event Time Altitude Azimuth Distance (km) Brightness Sun altitude
Rises 18:59:03 0° 273° (W) 2,335 1.7 -16.8°
Reaches altitude 10° 19:01:11 10° 279° (W) 1,476 0.2 -17.1°
Maximum altitude 19:04:25 50° 356° (N) 533 -3.3 -17.7°
Enters shadow 19:04:57 44° 31° (NNE) 580 -3.4 -17.8°
